TimePST,TemperatureF,Dew PointF,Humidity,Sea Level PressureIn,VisibilityMPH,Wind Direction,Wind SpeedMPH,Gust SpeedMPH,PrecipitationIn,Events,Conditions,WindDirDegrees,DateUTC
12:55 AM,28.9,15.1,56,29.97,10.0,NW,10.4,-,N/A,,Scattered Clouds,320,2013-02-09 08:55:00
1:55 AM,28.9,15.1,56,29.97,10.0,NW,6.9,-,N/A,,Mostly Cloudy,320,2013-02-09 09:55:00
2:55 AM,28.0,15.1,58,29.98,10.0,NNW,6.9,-,N/A,,Overcast,330,2013-02-09 10:55:00
3:55 AM,28.0,15.1,58,29.98,10.0,NNW,3.5,-,N/A,,Partly Cloudy,330,2013-02-09 11:55:00
4:55 AM,25.0,14.0,63,30.00,10.0,Calm,Calm,-,N/A,,Partly Cloudy,0,2013-02-09 12:55:00
5:55 AM,24.1,14.0,65,30.00,10.0,Calm,Calm,-,N/A,,Clear,0,2013-02-09 13:55:00
6:55 AM,23.0,14.0,68,30.03,10.0,NNE,4.6,-,N/A,,Scattered Clouds,30,2013-02-09 14:55:00
7:55 AM,24.1,15.1,69,30.05,10.0,ENE,3.5,-,N/A,,Scattered Clouds,60,2013-02-09 15:55:00
8:55 AM,28.0,16.0,61,30.05,10.0,Variable,3.5,-,N/A,,Scattered Clouds,0,2013-02-09 16:55:00
9:55 AM,32.0,15.1,50,30.06,10.0,Calm,Calm,-,N/A,,Partly Cloudy,0,2013-02-09 17:55:00
10:55 AM,35.1,12.9,40,30.06,10.0,NW,6.9,-,N/A,,Scattered Clouds,320,2013-02-09 18:55:00
11:55 AM,36.0,12.9,39,30.04,10.0,NNE,10.4,16.1,N/A,,Scattered Clouds,30,2013-02-09 19:55:00
12:55 PM,37.0,12.9,37,30.04,10.0,Calm,Calm,-,N/A,,Scattered Clouds,0,2013-02-09 20:55:00
1:55 PM,39.0,12.9,34,30.03,10.0,NNW,4.6,-,N/A,,Scattered Clouds,340,2013-02-09 21:55:00
2:55 PM,39.9,14.0,35,30.02,10.0,North,9.2,-,N/A,,Scattered Clouds,350,2013-02-09 22:55:00
3:55 PM,39.9,15.1,36,30.04,10.0,NNW,8.1,-,N/A,,Scattered Clouds,340,2013-02-09 23:55:00
4:55 PM,39.0,16.0,39,30.04,10.0,North,10.4,-,N/A,,Scattered Clouds,360,2013-02-10 00:55:00
5:55 PM,37.0,17.1,44,30.06,10.0,NNW,8.1,-,N/A,,Partly Cloudy,330,2013-02-10 01:55:00
6:55 PM,34.0,17.1,50,30.08,10.0,NNW,4.6,-,N/A,,Partly Cloudy,330,2013-02-10 02:55:00
7:55 PM,33.1,17.1,52,30.10,10.0,WNW,5.8,-,N/A,,Scattered Clouds,290,2013-02-10 03:55:00
8:55 PM,30.9,17.1,57,30.11,10.0,Calm,Calm,-,N/A,,Scattered Clouds,0,2013-02-10 04:55:00
9:55 PM,30.9,17.1,57,30.10,10.0,Calm,Calm,-,N/A,,Scattered Clouds,0,2013-02-10 05:55:00
10:55 PM,27.0,16.0,63,30.12,10.0,Calm,Calm,-,N/A,,Clear,0,2013-02-10 06:55:00
11:55 PM,26.1,16.0,66,30.12,10.0,Calm,Calm,-,N/A,,Clear,0,2013-02-10 07:55:00